This is the latest recevied weather packets stored in our database for station/object N5ZP. If no packets are shown the sender has not sent any weather packets the latest 10 day(s).
| Time | Temp. | Humidity | Pressure | Rain* | Wind** | Luminosity | Snow |
|---|---|---|---|---|---|---|---|
| 1777625263 | 13.89° C | 87% | 1012.4 hPa | 0 mm | - | 0 W/m² | - |
| 1777624960 | 13.89° C | 87% | 1012.6 hPa | 0 mm | - | 0 W/m² | - |
| 1777624657 | 13.89° C | 87% | 1012.8 hPa | 0 mm | - | 0 W/m² | - |
| 1777624352 | 13.89° C | 87% | 1012.7 hPa | 0 mm | - | 0 W/m² | - |
| 1777624049 | 14.44° C | 87% | 1012.7 hPa | 0 mm | - | 0 W/m² | - |
| 1777623746 | 14.44° C | 87% | 1012.5 hPa | 0 mm | - | 0 W/m² | - |
| 1777623443 | 14.44° C | 86% | 1012.7 hPa | 0 mm | - | 0 W/m² | - |
| 1777623140 | 14.44° C | 84% | 1012.4 hPa | 0 mm | - | 0 W/m² | - |
| 1777622837 | 14.44° C | 83% | 1012.7 hPa | 0 mm | - | 0 W/m² | - |
| 1777622534 | 14.44° C | 83% | 1012.7 hPa | 0 mm | - | 0 W/m² | - |
| 1777622230 | 14.44° C | 82% | 1012.4 hPa | 0 mm | - | 0 W/m² | - |
| 1777621927 | 14.44° C | 82% | 1012.2 hPa | 0 mm | - | 0 W/m² | - |
| 1777621622 | 14.44° C | 81% | 1012.4 hPa | 0 mm | - | 0 W/m² | - |
| 1777621319 | 14.44° C | 80% | 1012.3 hPa | 0 mm | - | 0 W/m² | - |
| 1777621014 | 14.44° C | 81% | 1012.4 hPa | 0 mm | - | 0 W/m² | - |
| 1777620710 | 15° C | 80% | 1012.4 hPa | 0 mm | - | 0 W/m² | - |
| 1777620406 | 15° C | 80% | 1012.6 hPa | 0 mm | - | 0 W/m² | - |
| 1777620104 | 15° C | 80% | 1013 hPa | 0 mm | - | 0 W/m² | - |
| 1777619800 | 15° C | 82% | 1013.4 hPa | 0 mm | - | 0 W/m² | - |
| 1777619496 | 15° C | 85% | 1013.5 hPa | 0 mm | - | 0 W/m² | - |
| 1777619191 | 15° C | 86% | 1013.5 hPa | 0 mm | - | 0 W/m² | - |
| 1777618886 | 15° C | 85% | 1013.9 hPa | 0 mm | - | 0 W/m² | - |
| 1777618585 | 15° C | 83% | 1013.7 hPa | 0 mm | - | 0 W/m² | - |
| 1777618282 | 15° C | 82% | 1013.7 hPa | 0 mm | - | 0 W/m² | - |
| 1777617979 | 15° C | 82% | 1014 hPa | 0 mm | - | 0 W/m² | - |
* Rain latest hour (hover to see other rain measurements)
** Current wind speed in m/s (hover to see current wind gust speed)